Location: Marcé
(47.5801°N, 0.3280°W)
Time: 06:52:24
(UTC+01:00)

Envisat - Pass Details

Date: 17 October 2021
Orbit: 764 x 766 km, 98.2° (Epoch: 04 December)

Event Time Altitude Azimuth Distance (km) Brightness Sun altitude
Rises 05:38:57 0° 32° (NNE) 3,244 7.0 -28.1°
Reaches altitude 10° 05:42:48 10° 62° (ENE) 2,310 6.4 -27.5°
Maximum altitude 05:44:53 12° 86° (E) 2,140 6.2 -27.2°
Drops below altitude 10° 05:46:58 10° 111° (ESE) 2,302 6.1 -26.8°
Sets 05:50:46 0° 140° (SE) 3,221 6.5 -26.2°
